Orbital Elements at Epoch 2459200.5 (2020-Dec-17.0) TDB
Reference: JPL 30 (heliocentric ecliptic J2000)
Element | Value | Uncertainty (1-sigma) | Units |
e | .2003819725949306 | 2.9641e-08 | |
a | 2.700152603214582 | 1.1925e-08 | au |
q | 2.159090698275107 | 8.0615e-08 | au |
i | 13.37297656252941 | 3.5935e-06 | deg |
node | 178.6956496521076 | 1.5438e-05 | deg |
peri | 175.9315066070286 | 1.8678e-05 | deg |
M | 93.9804435285338 | 9.1149e-06 | deg |
tp | 2458777.426443937300 (2019-Oct-20.92644394) | 4.0873e-05 | TDB |
period | 1620.618869885727 4.44 | 1.0736e-05 2.939e-08 | d yr |
n | .2221373616520856 | 1.4716e-09 | deg/d |
Q | 3.241214508154056 | 1.4315e-08 | au |
|
| | Orbit Determination Parameters
Additional Information
|